Le nostre stazioni meteo in Italia

Pubblicità
Il mio iltempo24.it
Kinbrace, Gran Bretagna (99016): Temperatura & dewpoint: 15.01.2018 08:00:00 - 21.01.2018 08:00:00 (GMT)Kinbrace, Gran Bretagna (99016): velocità del vento & gusts: 15.01.2018 08:00:00 - 21.01.2018 08:00:00 (GMT)Kinbrace, Gran Bretagna (99016): direzione del vento: 15.01.2018 08:00:00 - 21.01.2018 08:00:00 (GMT)Kinbrace, Gran Bretagna (99016): precipitazioni: 15.01.2018 08:00:00 - 21.01.2018 08:00:00 (GMT)
Data & Tempo tt [°C] td [°C] ff [km/h] ff [kn] fx [km/h] fx [kn] dd rr [mm]
21.01.2018 08:00:00 - - - - - - - -
21.01.2018 07:00:00 -11,1 -12,1 2 1 - - ESE 0,0
21.01.2018 06:00:00 -10,8 -11,7 2 1 - - SE 0,0
21.01.2018 05:00:00 -11,2 -12,5 0 0 - - N 0,0
21.01.2018 04:00:00 -9,2 -10,1 4 2 - - SE 0,0
21.01.2018 03:00:00 -9,6 -10,5 2 1 - - SSE 0,0
21.01.2018 02:00:00 -10,7 -11,8 2 1 - - S 0,0
21.01.2018 01:00:00 -8,8 -9,5 4 2 - - ESE 0,0
21.01.2018 00:00:00 -8,3 -9,0 2 1 - - SE 0,0
20.01.2018 23:00:00 -8,1 -8,8 2 1 - - SSE 0,0
20.01.2018 22:00:00 -6,8 -7,3 0 0 - - N 0,0
20.01.2018 21:00:00 -6,5 -7,1 2 1 - - S 0,0
20.01.2018 20:00:00 -4,3 -4,7 2 1 - - SSE 0,0
20.01.2018 19:00:00 -5,6 -6,0 2 1 - - ENE 0,0
20.01.2018 18:00:00 -7,5 -8,3 5 3 - - SSE 0,0
20.01.2018 17:00:00 -8,2 -9,3 2 1 - - S 0,0
20.01.2018 16:00:00 -6,1 -7,3 2 1 - - S 0,0
20.01.2018 15:00:00 -5,7 -7,0 2 1 - - SE 0,0
20.01.2018 14:00:00 -5,1 -6,7 4 2 - - SSE 0,0
20.01.2018 13:00:00 -6,1 -8,1 2 1 - - ESE 0,0
20.01.2018 12:00:00 -5,2 -6,7 2 1 - - SSE 0,0
20.01.2018 11:00:00 -7,4 -8,2 4 2 - - ESE 0,0
20.01.2018 10:00:00 -10,0 -11,0 4 2 - - SSE 0,0
20.01.2018 09:00:00 -6,8 -7,4 2 1 - - SE 0,0
20.01.2018 08:00:00 -6,8 -7,5 4 2 - - S 0,0
20.01.2018 07:00:00 -5,2 -5,9 4 2 - - E 0,0
20.01.2018 06:00:00 -3,3 -3,8 4 2 - - ENE 0,0
20.01.2018 05:00:00 -2,7 -3,1 4 2 - - ENE 0,0
20.01.2018 04:00:00 -3,2 -3,7 8 4 - - E 0,0
20.01.2018 03:00:00 -4,0 -4,6 4 2 - - SE 0,0
20.01.2018 02:00:00 -4,4 -5,0 4 2 - - E 0,0
20.01.2018 01:00:00 -4,2 -5,1 9 5 - - E 0,0
20.01.2018 00:00:00 -3,6 -4,6 9 5 - - E -
19.01.2018 23:00:00 -3,2 -4,1 5 3 - - E 0,0
19.01.2018 22:00:00 -4,0 -5,4 4 2 - - ESE 0,0
19.01.2018 21:00:00 -3,3 -4,4 4 2 - - SSE 0,0
19.01.2018 20:00:00 -2,7 -3,8 11 6 - - SO 0,0
19.01.2018 19:00:00 -2,6 -3,5 8 4 - - SO 0,0
19.01.2018 18:00:00 -0,6 -1,6 8 4 - - OSO 0,0
19.01.2018 17:00:00 -1,0 -2,3 4 2 - - O 0,0
19.01.2018 16:00:00 -1,9 -3,0 15 8 - - O 0,0
19.01.2018 15:00:00 -0,1 -1,6 13 7 - - OSO 0,0
19.01.2018 14:00:00 -0,3 -1,4 8 4 - - SO 0,0
19.01.2018 13:00:00 -0,1 -1,4 5 3 - - SE 0,0
19.01.2018 12:00:00 -0,4 -1,8 8 4 - - SSE 0,0
19.01.2018 11:00:00 -0,2 -2,1 4 2 - - SSE 0,0
19.01.2018 10:00:00 -3,0 -4,9 11 6 - - S 0,0
19.01.2018 09:00:00 -1,4 -2,8 13 7 - - SSO 0,0
19.01.2018 08:00:00 -2,5 -3,9 9 5 - - O 0,0
19.01.2018 07:00:00 -1,0 -2,4 8 4 - - SSE 0,0
19.01.2018 06:00:00 -0,1 -1,2 11 6 - - OSO 0,0
19.01.2018 05:00:00 -0,5 -2,4 13 7 - - OSO 0,0
19.01.2018 04:00:00 -1,1 -3,7 11 6 - - SSO 0,0
19.01.2018 03:00:00 0,3 -2,1 13 7 - - S 0,0
19.01.2018 02:00:00 -0,4 -1,8 9 5 - - OSO 0,0
19.01.2018 01:00:00 -0,1 -1,5 13 7 - - OSO 0,0
19.01.2018 00:00:00 0,9 -0,5 8 4 - - O 0,0
18.01.2018 23:00:00 0,4 -0,8 15 8 - - SO 0,0
18.01.2018 22:00:00 0,5 -1,0 8 4 - - OSO 0,0
18.01.2018 21:00:00 -0,5 -2,1 13 7 - - SSO 0,0
18.01.2018 20:00:00 -2,0 -3,0 9 5 - - ESE 0,0
18.01.2018 19:00:00 -2,8 -4,3 5 3 - - SE 0,0
18.01.2018 18:00:00 0,5 -1,9 15 8 - - O 0,0
18.01.2018 17:00:00 -1,5 -3,9 5 3 - - ONO 0,0
18.01.2018 16:00:00 0,5 -2,2 21 11 - - O 0,0
18.01.2018 15:00:00 0,4 -1,5 9 5 - - O 0,0
18.01.2018 14:00:00 0,3 -1,8 13 7 - - S 0,0
18.01.2018 13:00:00 0,0 -1,2 13 7 - - SSO 0,0
18.01.2018 12:00:00 -0,5 -1,1 5 3 - - SSO 0,0
18.01.2018 11:00:00 0,2 -0,1 4 2 - - NNO 0,0
18.01.2018 10:00:00 -1,8 -2,3 4 2 - - ONO 0,0
18.01.2018 09:00:00 -4,6 -5,6 5 3 - - SSO 0,0
18.01.2018 08:00:00 -2,6 -3,1 2 1 - - E 0,0
18.01.2018 07:00:00 -0,1 -0,3 8 4 - - O 0,0
18.01.2018 06:00:00 -3,4 -4,1 5 3 - - NNO 0,0
18.01.2018 05:00:00 -0,6 -1,3 4 2 - - NNE 0,0
18.01.2018 04:00:00 0,4 -0,6 11 6 - - ONO 0,0
18.01.2018 03:00:00 -0,2 -1,7 9 5 - - OSO 0,0
18.01.2018 02:00:00 -1,3 -2,5 4 2 - - NNE 0,0
18.01.2018 01:00:00 -1,7 -3,4 4 2 - - NNO 0,0
18.01.2018 00:00:00 -0,5 -2,2 8 4 - - N 0,0
17.01.2018 23:00:00 0,3 -1,0 15 8 - - OSO 0,0
17.01.2018 22:00:00 0,4 -0,7 15 8 - - O 0,0
17.01.2018 21:00:00 -0,2 -1,3 9 5 - - S 0,0
17.01.2018 20:00:00 0,0 -0,8 2 1 - - S 0,0
17.01.2018 19:00:00 0,2 -1,3 5 3 - - OSO 0,0
17.01.2018 18:00:00 1,0 -0,5 8 4 - - OSO 0,2
17.01.2018 17:00:00 0,7 -0,3 11 6 - - NO 0,4
17.01.2018 16:00:00 0,6 0,1 8 4 - - O 0,4
17.01.2018 15:00:00 0,6 -0,1 13 7 - - NO 1,0
17.01.2018 14:00:00 1,2 -0,3 29 16 - - ONO 1,4
17.01.2018 13:00:00 1,1 0,1 21 11 48 26 ONO 4,4
17.01.2018 12:00:00 2,2 -1,2 31 17 48 26 O 0,0
17.01.2018 11:00:00 2,0 -0,8 16 9 - - ONO 0,0
17.01.2018 10:00:00 1,8 -0,3 22 12 - - ONO 0,0
17.01.2018 09:00:00 1,1 0,2 13 7 - - ONO 0,0
17.01.2018 08:00:00 0,5 -0,4 21 11 - - ONO 0,0
17.01.2018 07:00:00 0,1 -1,0 26 14 48 26 ONO 0,0
17.01.2018 06:00:00 0,1 -0,4 35 19 57 31 ONO 0,0
17.01.2018 05:00:00 0,2 -0,2 26 14 46 25 ONO 0,0
17.01.2018 04:00:00 0,3 -0,1 26 14 - - ONO 0,0
17.01.2018 03:00:00 -0,9 -1,9 9 5 - - SO 0,0
17.01.2018 02:00:00 -1,8 -2,9 8 4 - - SO 0,0
17.01.2018 01:00:00 -1,6 -2,3 11 6 - - SO 0,0
17.01.2018 00:00:00 -1,7 -2,4 13 7 - - OSO 0,0
16.01.2018 23:00:00 -2,0 -4,3 11 6 - - SSO 0,0
16.01.2018 22:00:00 -1,8 -3,3 5 3 - - SSO 0,0
16.01.2018 21:00:00 -2,3 -3,4 9 5 - - SSO 0,0
16.01.2018 20:00:00 -2,1 -3,0 15 8 - - SSO 0,0
16.01.2018 19:00:00 -2,0 -3,5 5 3 - - SSO 0,0
16.01.2018 18:00:00 -2,2 -3,8 4 2 - - SSO 0,0
16.01.2018 17:00:00 -1,2 -2,1 16 9 - - SO 0,0
16.01.2018 16:00:00 -1,4 -2,2 9 5 - - SSO 0,0
16.01.2018 15:00:00 -1,1 -2,3 8 4 - - SSO 0,0
16.01.2018 14:00:00 -0,8 -1,5 8 4 - - SO 0,0
16.01.2018 13:00:00 -0,6 -1,6 9 5 - - SSO 0,0
16.01.2018 12:00:00 -0,5 -1,4 15 8 - - SO 0,0
16.01.2018 11:00:00 -0,8 -1,5 13 7 - - SO 0,0
16.01.2018 10:00:00 -0,4 -1,0 15 8 - - SSO 0,0
16.01.2018 09:00:00 -1,0 -2,0 11 6 - - SSO 0,0
16.01.2018 08:00:00 -1,1 -2,0 11 6 - - SO 0,0
16.01.2018 07:00:00 -1,2 -2,1 11 6 - - SSO 0,0
16.01.2018 06:00:00 -0,1 -0,6 13 7 - - SO 0,0
16.01.2018 05:00:00 -0,5 -1,2 8 4 - - S 0,0
16.01.2018 04:00:00 -1,1 -2,1 8 4 - - SO 0,0
16.01.2018 03:00:00 -0,4 -1,0 11 6 - - OSO 0,0
16.01.2018 02:00:00 -0,4 -1,0 13 7 - - SO 0,0
16.01.2018 01:00:00 -1,0 -1,8 8 4 - - SSO 0,0
16.01.2018 00:00:00 -0,7 -1,7 4 2 - - SO 0,0
15.01.2018 23:00:00 0,3 -0,6 8 4 - - SSO 0,0
15.01.2018 22:00:00 0,2 -0,6 4 2 - - OSO 0,2
15.01.2018 21:00:00 0,4 -0,1 9 5 - - SSO 0,0
15.01.2018 20:00:00 0,5 -0,2 16 9 - - SO 0,0
15.01.2018 19:00:00 0,8 0,1 16 9 - - SSO 0,2
15.01.2018 18:00:00 0,7 0,1 5 3 - - SO 0,2
15.01.2018 17:00:00 1,3 0,0 9 5 - - SSO 0,0
15.01.2018 16:00:00 1,5 0,4 15 8 - - SO 0,0
15.01.2018 15:00:00 1,2 0,1 11 6 - - SO 0,6
15.01.2018 14:00:00 2,5 0,7 9 5 - - SSO 0,0
15.01.2018 13:00:00 3,1 1,5 13 7 - - OSO 0,2
15.01.2018 12:00:00 3,2 1,9 9 5 - - OSO 0,2
15.01.2018 11:00:00 3,1 1,3 15 8 - - SO 0,0
15.01.2018 10:00:00 3,2 1,4 8 4 - - SE 0,0
15.01.2018 09:00:00 2,6 1,1 11 6 - - SSO 0,2
15.01.2018 08:00:00 3,0 1,1 4 2 - - S 0,4

tt = Temperatura
td = dewpoint
ff = velocità del vento
fx = gusts
dd = direzione del vento
rr = precipitazioni

Stazioni seguenti

WeatherPro
AMSI
MeteoEarth